Time,TemperatureF,DewpointF,PressureIn,WindDirection,WindDirectionDegrees,WindSpeedMPH,WindSpeedGustMPH,Humidity,HourlyPrecipIn,Conditions,Clouds,dailyrainin,SoftwareType,DateUTC
2013-07-14 00:02:00,60.0,31.5,30.00,NNE,13,0.0,0.0,34,0.00,,,0.00,Wunderground v.1.15,2013-07-14 07:02:00,
2013-07-14 00:08:00,59.8,30.6,30.00,NNE,13,0.0,0.0,33,0.00,,,0.00,Wunderground v.1.15,2013-07-14 07:08:00,
2013-07-14 00:14:00,59.6,30.4,30.00,NNE,13,0.0,0.0,33,0.00,,,0.00,Wunderground v.1.15,2013-07-14 07:14:00,
2013-07-14 00:20:00,59.3,30.2,30.00,NNE,13,0.0,1.0,33,0.00,,,0.00,Wunderground v.1.15,2013-07-14 07:20:00,
2013-07-14 00:26:00,59.0,29.9,30.00,NNE,13,0.0,1.0,33,0.00,,,0.00,Wunderground v.1.15,2013-07-14 07:26:00,
2013-07-14 00:32:00,58.9,29.8,30.00,NNE,13,0.0,0.0,33,0.00,,,0.00,Wunderground v.1.15,2013-07-14 07:32:00,
2013-07-14 00:37:00,58.7,31.1,30.00,NNE,13,0.0,0.0,35,0.00,,,0.00,Wunderground v.1.15,2013-07-14 07:37:00,
2013-07-14 00:44:00,58.4,30.1,30.00,NNE,13,0.0,1.0,34,0.00,,,0.00,Wunderground v.1.15,2013-07-14 07:44:00,
2013-07-14 00:50:00,58.1,29.8,30.00,NNE,13,0.0,0.0,34,0.00,,,0.00,Wunderground v.1.15,2013-07-14 07:50:00,
2013-07-14 00:56:00,57.8,30.3,30.00,NNE,13,0.0,0.0,35,0.00,,,0.00,Wunderground v.1.15,2013-07-14 07:56:00,
2013-07-14 01:02:00,57.4,30.6,30.00,NNE,13,0.0,0.0,36,0.00,,,0.00,Wunderground v.1.15,2013-07-14 08:02:00,
2013-07-14 01:08:00,57.1,30.4,30.00,NNE,13,0.0,0.0,36,0.00,,,0.00,Wunderground v.1.15,2013-07-14 08:08:00,
2013-07-14 01:14:00,56.9,30.2,30.00,NNE,13,0.0,0.0,36,0.00,,,0.00,Wunderground v.1.15,2013-07-14 08:14:00,
2013-07-14 01:20:00,56.7,30.0,30.00,NNE,13,0.0,0.0,36,0.00,,,0.00,Wunderground v.1.15,2013-07-14 08:20:00,
2013-07-14 01:26:00,56.5,29.8,30.00,NNE,13,0.0,0.0,36,0.00,,,0.00,Wunderground v.1.15,2013-07-14 08:26:00,
2013-07-14 01:32:00,56.3,29.0,30.00,NNE,13,0.0,0.0,35,0.00,,,0.00,Wunderground v.1.15,2013-07-14 08:32:00,
2013-07-14 01:38:00,56.1,29.5,30.00,NNE,13,0.0,0.0,36,0.00,,,0.00,Wunderground v.1.15,2013-07-14 08:38:00,
2013-07-14 01:43:00,55.9,30.0,30.00,NNE,13,0.0,0.0,37,0.00,,,0.00,Wunderground v.1.15,2013-07-14 08:43:00,
2013-07-14 01:50:00,55.6,29.7,30.00,NNE,13,0.0,0.0,37,0.00,,,0.00,Wunderground v.1.15,2013-07-14 08:50:00,
2013-07-14 01:56:00,55.4,30.8,30.01,NNE,13,0.0,0.0,39,0.00,,,0.00,Wunderground v.1.15,2013-07-14 08:56:00,
2013-07-14 02:02:00,54.8,29.7,30.01,NNE,13,0.0,0.0,38,0.00,,,0.00,Wunderground v.1.15,2013-07-14 09:02:00,
2013-07-14 02:08:00,54.3,29.8,30.01,NNE,13,0.0,0.0,39,0.00,,,0.00,Wunderground v.1.15,2013-07-14 09:08:00,
2013-07-14 02:14:00,53.9,30.7,30.01,NNE,13,0.0,0.0,41,0.00,,,0.00,Wunderground v.1.15,2013-07-14 09:14:00,
2013-07-14 02:20:00,53.6,31.0,30.00,NNE,13,0.0,0.0,42,0.00,,,0.00,Wunderground v.1.15,2013-07-14 09:20:00,
2013-07-14 02:26:00,53.4,30.3,30.01,NNE,13,0.0,0.0,41,0.00,,,0.00,Wunderground v.1.15,2013-07-14 09:26:00,
2013-07-14 02:32:00,53.2,30.7,30.00,NNE,13,0.0,0.0,42,0.00,,,0.00,Wunderground v.1.15,2013-07-14 09:32:00,
2013-07-14 02:38:00,53.0,32.2,30.00,NNE,13,0.0,0.0,45,0.00,,,0.00,Wunderground v.1.15,2013-07-14 09:38:00,
2013-07-14 02:44:00,52.8,31.5,30.01,NNE,13,0.0,0.0,44,0.00,,,0.00,Wunderground v.1.15,2013-07-14 09:44:00,
2013-07-14 02:50:00,52.7,31.9,30.01,NNE,13,0.0,0.0,45,0.00,,,0.00,Wunderground v.1.15,2013-07-14 09:50:00,
2013-07-14 02:56:00,52.3,32.1,30.00,NNE,13,0.0,0.0,46,0.00,,,0.00,Wunderground v.1.15,2013-07-14 09:56:00,
2013-07-14 03:02:00,51.9,31.7,30.00,NNE,13,0.0,0.0,46,0.00,,,0.00,Wunderground v.1.15,2013-07-14 10:02:00,
2013-07-14 03:08:00,51.6,31.5,30.01,NNE,13,0.0,0.0,46,0.00,,,0.00,Wunderground v.1.15,2013-07-14 10:08:00,
2013-07-14 03:14:00,51.7,29.9,30.01,NNE,13,0.0,1.0,43,0.00,,,0.00,Wunderground v.1.15,2013-07-14 10:14:00,
2013-07-14 03:20:00,51.9,30.6,30.01,NNE,13,0.0,0.0,44,0.00,,,0.00,Wunderground v.1.15,2013-07-14 10:20:00,
2013-07-14 03:26:00,51.7,31.6,30.01,NNE,13,0.0,0.0,46,0.00,,,0.00,Wunderground v.1.15,2013-07-14 10:26:00,
2013-07-14 03:32:00,51.1,32.1,30.01,NNE,13,0.0,0.0,48,0.00,,,0.00,Wunderground v.1.15,2013-07-14 10:32:00,
2013-07-14 03:38:00,50.4,32.9,30.01,NNE,13,0.0,0.0,51,0.00,,,0.00,Wunderground v.1.15,2013-07-14 10:38:00,
2013-07-14 03:44:00,49.7,33.2,30.00,NNE,13,0.0,0.0,53,0.00,,,0.00,Wunderground v.1.15,2013-07-14 10:44:00,
2013-07-14 03:50:00,49.3,32.9,30.00,NNE,13,0.0,0.0,53,0.00,,,0.00,Wunderground v.1.15,2013-07-14 10:50:00,
2013-07-14 03:56:00,49.0,31.2,30.00,NNE,13,0.0,1.0,50,0.00,,,0.00,Wunderground v.1.15,2013-07-14 10:56:00,
2013-07-14 04:02:00,49.0,31.2,30.00,NNE,13,0.0,0.0,50,0.00,,,0.00,Wunderground v.1.15,2013-07-14 11:02:00,
2013-07-14 04:08:00,49.2,30.8,30.00,NNE,13,0.0,0.0,49,0.00,,,0.00,Wunderground v.1.15,2013-07-14 11:08:00,
2013-07-14 04:13:00,49.0,31.6,30.00,NNE,13,0.0,1.0,51,0.00,,,0.00,Wunderground v.1.15,2013-07-14 11:13:00,
2013-07-14 04:20:00,48.8,31.0,30.00,NNE,13,0.0,0.0,50,0.00,,,0.00,Wunderground v.1.15,2013-07-14 11:20:00,
2013-07-14 04:26:00,48.9,31.1,30.00,NNE,13,0.0,1.0,50,0.00,,,0.00,Wunderground v.1.15,2013-07-14 11:26:00,
2013-07-14 04:32:00,49.0,31.6,30.00,NNE,13,0.0,3.0,51,0.00,,,0.00,Wunderground v.1.15,2013-07-14 11:32:00,
2013-07-14 04:38:00,48.6,30.8,30.00,NNE,13,0.0,3.0,50,0.00,,,0.00,Wunderground v.1.15,2013-07-14 11:38:00,
2013-07-14 04:44:00,48.6,30.3,30.00,NNE,13,0.0,0.0,49,0.00,,,0.00,Wunderground v.1.15,2013-07-14 11:44:00,
2013-07-14 04:50:00,48.8,30.5,30.01,NNE,13,0.0,0.0,49,0.00,,,0.00,Wunderground v.1.15,2013-07-14 11:50:00,
2013-07-14 04:56:00,48.8,31.0,30.01,NNE,13,0.0,0.0,50,0.00,,,0.00,Wunderground v.1.15,2013-07-14 11:56:00,
2013-07-14 05:01:00,48.7,32.3,30.01,NNE,13,0.0,0.0,53,0.00,,,0.00,Wunderground v.1.15,2013-07-14 12:01:00,
2013-07-14 05:08:00,48.3,34.6,30.01,NNE,13,0.0,0.0,59,0.00,,,0.00,Wunderground v.1.15,2013-07-14 12:08:00,
2013-07-14 05:14:00,47.6,33.5,30.01,NNE,13,0.0,1.0,58,0.00,,,0.00,Wunderground v.1.15,2013-07-14 12:14:00,
2013-07-14 05:20:00,46.9,33.3,30.01,NNE,13,0.0,1.0,59,0.00,,,0.00,Wunderground v.1.15,2013-07-14 12:20:00,
2013-07-14 05:25:00,46.4,32.0,30.01,NNE,13,0.0,1.0,57,0.00,,,0.00,Wunderground v.1.15,2013-07-14 12:25:00,
2013-07-14 05:32:00,46.2,31.8,30.01,NNE,13,0.0,1.0,57,0.00,,,0.00,Wunderground v.1.15,2013-07-14 12:32:00,
2013-07-14 05:38:00,46.2,31.4,30.01,NNE,13,0.0,1.0,56,0.00,,,0.00,Wunderground v.1.15,2013-07-14 12:38:00,
2013-07-14 05:43:00,46.2,30.9,30.01,NNE,13,0.0,1.0,55,0.00,,,0.00,Wunderground v.1.15,2013-07-14 12:43:00,
2013-07-14 05:50:00,46.2,30.9,30.01,NNE,13,0.0,3.0,55,0.00,,,0.00,Wunderground v.1.15,2013-07-14 12:50:00,
2013-07-14 05:56:00,46.4,31.1,30.01,NNE,13,2.0,4.0,55,0.00,,,0.00,Wunderground v.1.15,2013-07-14 12:56:00,
2013-07-14 06:02:00,46.7,31.4,30.01,NNE,13,3.0,4.0,55,0.00,,,0.00,Wunderground v.1.15,2013-07-14 13:02:00,
2013-07-14 06:08:00,46.9,31.6,30.01,NNE,13,1.0,4.0,55,0.00,,,0.00,Wunderground v.1.15,2013-07-14 13:08:00,
2013-07-14 06:14:00,47.0,31.2,30.01,NNE,13,1.0,3.0,54,0.00,,,0.00,Wunderground v.1.15,2013-07-14 13:14:00,
2013-07-14 06:20:00,47.2,30.5,30.01,NNE,13,2.0,4.0,52,0.00,,,0.00,Wunderground v.1.15,2013-07-14 13:20:00,
2013-07-14 06:26:00,47.3,30.5,30.01,NNE,13,3.0,4.0,52,0.00,,,0.00,Wunderground v.1.15,2013-07-14 13:26:00,
2013-07-14 06:32:00,47.5,30.3,30.01,NNE,13,4.0,4.0,51,0.00,,,0.00,Wunderground v.1.15,2013-07-14 13:32:00,
2013-07-14 06:38:00,47.8,31.0,30.02,NNE,13,3.0,4.0,52,0.00,,,0.00,Wunderground v.1.15,2013-07-14 13:38:00,
2013-07-14 06:44:00,48.3,31.5,30.02,NNE,13,2.0,3.0,52,0.00,,,0.00,Wunderground v.1.15,2013-07-14 13:44:00,
2013-07-14 06:50:00,48.8,31.9,30.02,NNE,13,1.0,1.0,52,0.00,,,0.00,Wunderground v.1.15,2013-07-14 13:50:00,
2013-07-14 06:56:00,49.4,32.5,30.02,NNE,13,1.0,1.0,52,0.00,,,0.00,Wunderground v.1.15,2013-07-14 13:56:00,
2013-07-14 07:02:00,50.1,32.7,30.02,NNE,13,1.0,3.0,51,0.00,,,0.00,Wunderground v.1.15,2013-07-14 14:02:00,
2013-07-14 07:08:00,50.6,33.1,30.02,NNE,13,2.0,3.0,51,0.00,,,0.00,Wunderground v.1.15,2013-07-14 14:08:00,
2013-07-14 07:14:00,51.3,33.3,30.02,NNE,13,1.0,2.0,50,0.00,,,0.00,Wunderground v.1.15,2013-07-14 14:14:00,
2013-07-14 07:20:00,52.2,33.1,30.02,NNE,13,1.0,1.0,48,0.00,,,0.00,Wunderground v.1.15,2013-07-14 14:20:00,
2013-07-14 07:26:00,53.1,33.4,30.01,NNE,13,0.0,1.0,47,0.00,,,0.00,Wunderground v.1.15,2013-07-14 14:26:00,
2013-07-14 07:32:00,54.1,34.8,30.01,NNE,13,0.0,0.0,48,0.00,,,0.00,Wunderground v.1.15,2013-07-14 14:32:00,
2013-07-14 07:38:00,55.3,34.3,30.01,NNE,13,0.0,0.0,45,0.00,,,0.00,Wunderground v.1.15,2013-07-14 14:38:00,
2013-07-14 07:44:00,56.2,35.1,30.01,NNE,13,0.0,0.0,45,0.00,,,0.00,Wunderground v.1.15,2013-07-14 14:44:00,
2013-07-14 07:50:00,57.0,35.3,30.01,NNE,13,0.0,0.0,44,0.00,,,0.00,Wunderground v.1.15,2013-07-14 14:50:00,
2013-07-14 07:56:00,57.8,35.4,30.01,NNE,13,0.0,0.0,43,0.00,,,0.00,Wunderground v.1.15,2013-07-14 14:56:00,
2013-07-14 08:02:00,58.7,34.4,30.01,NNE,13,0.0,0.0,40,0.00,,,0.00,Wunderground v.1.15,2013-07-14 15:02:00,
2013-07-14 08:08:00,59.7,34.0,30.01,NNE,13,0.0,0.0,38,0.00,,,0.00,Wunderground v.1.15,2013-07-14 15:08:00,
2013-07-14 08:14:00,60.8,35.0,30.01,NNE,13,0.0,0.0,38,0.00,,,0.00,Wunderground v.1.15,2013-07-14 15:14:00,
2013-07-14 08:19:00,61.9,33.9,30.01,NNE,13,0.0,0.0,35,0.00,,,0.00,Wunderground v.1.15,2013-07-14 15:19:00,
2013-07-14 08:26:00,62.9,31.8,30.01,NNE,13,0.0,0.0,31,0.00,,,0.00,Wunderground v.1.15,2013-07-14 15:26:00,
2013-07-14 08:32:00,64.5,34.0,30.01,NNE,13,0.0,0.0,32,0.00,,,0.00,Wunderground v.1.15,2013-07-14 15:32:00,
2013-07-14 08:38:00,65.7,34.2,30.01,NNE,13,0.0,0.0,31,0.00,,,0.00,Wunderground v.1.15,2013-07-14 15:38:00,
2013-07-14 08:44:00,66.8,33.5,30.01,NNE,13,0.0,1.0,29,0.00,,,0.00,Wunderground v.1.15,2013-07-14 15:44:00,
2013-07-14 08:50:00,67.6,33.3,30.01,NNE,13,0.0,1.0,28,0.00,,,0.00,Wunderground v.1.15,2013-07-14 15:50:00,
2013-07-14 08:56:00,68.3,31.1,30.01,NNE,13,0.0,1.0,25,0.00,,,0.00,Wunderground v.1.15,2013-07-14 15:56:00,
2013-07-14 09:01:00,68.8,30.5,30.00,NNE,13,0.0,0.0,24,0.00,,,0.00,Wunderground v.1.15,2013-07-14 16:01:00,
2013-07-14 09:08:00,69.5,32.1,30.00,NNE,13,0.0,0.0,25,0.00,,,0.00,Wunderground v.1.15,2013-07-14 16:08:00,
2013-07-14 09:14:00,70.2,31.7,30.00,NNE,13,0.0,0.0,24,0.00,,,0.00,Wunderground v.1.15,2013-07-14 16:14:00,
2013-07-14 09:20:00,70.1,31.6,30.00,NNE,13,1.0,1.0,24,0.00,,,0.00,Wunderground v.1.15,2013-07-14 16:20:00,
2013-07-14 09:26:00,70.7,32.1,30.00,NNE,13,1.0,2.0,24,0.00,,,0.00,Wunderground v.1.15,2013-07-14 16:26:00,
2013-07-14 09:32:00,71.3,31.6,29.99,NNE,13,1.0,1.0,23,0.00,,,0.00,Wunderground v.1.15,2013-07-14 16:32:00,
2013-07-14 09:38:00,71.7,31.9,29.99,NNE,13,1.0,4.0,23,0.00,,,0.00,Wunderground v.1.15,2013-07-14 16:38:00,
2013-07-14 09:43:00,72.0,32.1,29.99,NNE,13,2.0,3.0,23,0.00,,,0.00,Wunderground v.1.15,2013-07-14 16:43:00,
2013-07-14 09:50:00,71.6,32.9,29.99,NNE,13,1.0,3.0,24,0.00,,,0.00,Wunderground v.1.15,2013-07-14 16:50:00,
2013-07-14 09:56:00,72.0,33.2,29.99,NNE,13,1.0,4.0,24,0.00,,,0.00,Wunderground v.1.15,2013-07-14 16:56:00,
2013-07-14 10:02:00,71.8,33.0,29.98,NNE,13,1.0,1.0,24,0.00,,,0.00,Wunderground v.1.15,2013-07-14 17:02:00,
2013-07-14 10:08:00,72.4,32.5,29.98,NNE,13,1.0,5.0,23,0.00,,,0.00,Wunderground v.1.15,2013-07-14 17:08:00,
2013-07-14 10:14:00,72.6,32.7,29.98,NNE,13,2.0,4.0,23,0.00,,,0.00,Wunderground v.1.15,2013-07-14 17:14:00,
2013-07-14 10:20:00,72.6,32.7,29.98,East,86,3.0,3.0,23,0.00,,,0.00,Wunderground v.1.15,2013-07-14 17:20:00,
2013-07-14 10:26:00,72.1,33.3,29.98,East,96,4.0,4.0,24,0.00,,,0.00,Wunderground v.1.15,2013-07-14 17:26:00,
2013-07-14 10:32:00,72.2,34.4,29.98,ESE,113,4.0,7.0,25,0.00,,,0.00,Wunderground v.1.15,2013-07-14 17:32:00,
2013-07-14 10:38:00,72.3,33.5,29.98,ESE,107,5.0,8.0,24,0.00,,,0.00,Wunderground v.1.15,2013-07-14 17:38:00,
2013-07-14 10:44:00,73.0,33.0,29.98,ESE,103,5.0,8.0,23,0.00,,,0.00,Wunderground v.1.15,2013-07-14 17:44:00,
2013-07-14 10:50:00,73.1,34.1,29.97,ESE,103,4.0,5.0,24,0.00,,,0.00,Wunderground v.1.15,2013-07-14 17:50:00,
2013-07-14 10:56:00,73.1,33.1,29.97,ESE,103,4.0,5.0,23,0.00,,,0.00,Wunderground v.1.15,2013-07-14 17:56:00,
2013-07-14 11:04:00,74.9,33.5,29.97,ESE,103,1.0,1.0,22,0.00,,,0.00,Wunderground v.1.15,2013-07-14 18:04:00,
2013-07-14 11:10:00,75.5,34.0,29.97,ESE,103,1.0,2.0,22,0.00,,,0.00,Wunderground v.1.15,2013-07-14 18:10:00,
2013-07-14 11:16:00,76.0,36.6,29.97,ESE,103,1.0,1.0,24,0.00,,,0.00,Wunderground v.1.15,2013-07-14 18:16:00,
2013-07-14 11:22:00,76.6,34.9,29.96,ESE,103,1.0,3.0,22,0.00,,,0.00,Wunderground v.1.15,2013-07-14 18:22:00,
2013-07-14 11:28:00,76.3,34.6,29.96,ESE,103,3.0,5.0,22,0.00,,,0.00,Wunderground v.1.15,2013-07-14 18:28:00,
2013-07-14 11:34:00,76.7,35.0,29.96,ESE,103,2.0,3.0,22,0.00,,,0.00,Wunderground v.1.15,2013-07-14 18:34:00,
2013-07-14 11:40:00,77.5,34.5,29.96,ESE,103,2.0,4.0,21,0.00,,,0.00,Wunderground v.1.15,2013-07-14 18:40:00,
2013-07-14 11:46:00,78.3,35.1,29.95,ESE,103,1.0,2.0,21,0.00,,,0.00,Wunderground v.1.15,2013-07-14 18:46:00,
2013-07-14 11:52:00,79.6,35.0,29.95,ESE,103,1.0,1.0,20,0.00,,,0.00,Wunderground v.1.15,2013-07-14 18:52:00,
2013-07-14 11:58:00,80.1,35.4,29.95,ESE,103,1.0,3.0,20,0.00,,,0.00,Wunderground v.1.15,2013-07-14 18:58:00,
2013-07-14 12:04:00,80.4,34.3,29.94,ESE,103,2.0,4.0,19,0.00,,,0.00,Wunderground v.1.15,2013-07-14 19:04:00,
2013-07-14 12:10:00,80.5,34.4,29.94,East,100,2.0,5.0,19,0.00,,,0.00,Wunderground v.1.15,2013-07-14 19:10:00,
2013-07-14 12:16:00,80.8,37.2,29.94,East,100,2.0,2.0,21,0.00,,,0.00,Wunderground v.1.15,2013-07-14 19:16:00,
2013-07-14 12:22:00,82.3,35.9,29.93,East,100,1.0,1.0,19,0.00,,,0.00,Wunderground v.1.15,2013-07-14 19:22:00,
2013-07-14 12:28:00,83.6,35.6,29.93,East,100,1.0,1.0,18,0.00,,,0.00,Wunderground v.1.15,2013-07-14 19:28:00,
2013-07-14 12:34:00,83.7,35.7,29.93,East,98,2.0,3.0,18,0.00,,,0.00,Wunderground v.1.15,2013-07-14 19:34:00,
2013-07-14 12:39:00,83.1,35.2,29.92,East,97,2.0,5.0,18,0.00,,,0.00,Wunderground v.1.15,2013-07-14 19:39:00,
2013-07-14 12:46:00,83.4,35.4,29.92,East,96,2.0,6.0,18,0.00,,,0.00,Wunderground v.1.15,2013-07-14 19:46:00,
2013-07-14 12:52:00,83.0,35.1,29.92,East,96,2.0,5.0,18,0.00,,,0.00,Wunderground v.1.15,2013-07-14 19:52:00,
2013-07-14 12:58:00,82.3,37.2,29.92,East,99,3.0,7.0,20,0.00,,,0.00,Wunderground v.1.15,2013-07-14 19:58:00,
2013-07-14 13:03:00,82.3,37.2,29.91,East,93,3.0,6.0,20,0.00,,,0.00,Wunderground v.1.15,2013-07-14 20:03:00,
2013-07-14 13:10:00,84.2,37.5,29.91,East,93,2.0,2.0,19,0.00,,,0.00,Wunderground v.1.15,2013-07-14 20:10:00,
2013-07-14 13:16:00,84.6,35.0,29.91,East,92,2.0,3.0,17,0.00,,,0.00,Wunderground v.1.15,2013-07-14 20:16:00,
2013-07-14 13:22:00,84.6,37.8,29.91,East,82,3.0,6.0,19,0.00,,,0.00,Wunderground v.1.15,2013-07-14 20:22:00,
2013-07-14 13:27:00,84.4,40.2,29.90,ENE,67,4.0,6.0,21,0.00,,,0.00,Wunderground v.1.15,2013-07-14 20:27:00,
2013-07-14 13:34:00,85.5,39.8,29.90,ENE,67,3.0,4.0,20,0.00,,,0.00,Wunderground v.1.15,2013-07-14 20:34:00,
2013-07-14 13:40:00,85.6,38.6,29.90,ENE,64,2.0,2.0,19,0.00,,,0.00,Wunderground v.1.15,2013-07-14 20:40:00,
2013-07-14 13:45:00,85.9,37.5,29.90,ENE,64,2.0,3.0,18,0.00,,,0.00,Wunderground v.1.15,2013-07-14 20:45:00,
2013-07-14 13:52:00,85.6,38.6,29.89,NW,323,3.0,12.0,19,0.00,,,0.00,Wunderground v.1.15,2013-07-14 20:52:00,
2013-07-14 13:58:00,86.2,39.1,29.89,ENE,77,4.0,12.0,19,0.00,,,0.00,Wunderground v.1.15,2013-07-14 20:58:00,
2013-07-14 14:04:00,86.6,36.6,29.89,East,81,5.0,8.0,17,0.00,,,0.00,Wunderground v.1.15,2013-07-14 21:04:00,
2013-07-14 14:09:00,85.1,38.2,29.89,East,81,5.0,8.0,19,0.00,,,0.00,Wunderground v.1.15,2013-07-14 21:09:00,
2013-07-14 14:16:00,85.1,39.5,29.89,NE,44,6.0,13.0,20,0.00,,,0.00,Wunderground v.1.15,2013-07-14 21:16:00,
2013-07-14 14:22:00,86.3,39.2,29.88,NE,44,4.0,4.0,19,0.00,,,0.00,Wunderground v.1.15,2013-07-14 21:22:00,
2013-07-14 14:28:00,86.5,38.0,29.88,NE,56,2.0,4.0,18,0.00,,,0.00,Wunderground v.1.15,2013-07-14 21:28:00,
2013-07-14 14:34:00,86.0,38.9,29.88,North,355,5.0,17.0,19,0.00,,,0.00,Wunderground v.1.15,2013-07-14 21:34:00,
2013-07-14 14:40:00,86.8,39.6,29.87,North,5,4.0,17.0,19,0.00,,,0.00,Wunderground v.1.15,2013-07-14 21:40:00,
2013-07-14 14:46:00,87.5,40.2,29.87,North,9,3.0,3.0,19,0.00,,,0.00,Wunderground v.1.15,2013-07-14 21:46:00,
2013-07-14 14:51:00,87.4,38.7,29.87,NNW,339,5.0,5.0,18,0.00,,,0.00,Wunderground v.1.15,2013-07-14 21:51:00,
2013-07-14 14:58:00,87.1,38.4,29.86,NNW,329,5.0,11.0,18,0.00,,,0.00,Wunderground v.1.15,2013-07-14 21:58:00,
2013-07-14 15:04:00,86.8,40.9,29.86,NNW,329,5.0,5.0,20,0.00,,,0.00,Wunderground v.1.15,2013-07-14 22:04:00,
2013-07-14 15:10:00,87.7,40.3,29.86,NNW,329,3.0,5.0,19,0.00,,,0.00,Wunderground v.1.15,2013-07-14 22:10:00,
2013-07-14 15:16:00,88.2,37.9,29.85,NNW,329,2.0,7.0,17,0.00,,,0.00,Wunderground v.1.15,2013-07-14 22:16:00,
2013-07-14 15:22:00,86.8,39.6,29.85,ENE,74,4.0,4.0,19,0.00,,,0.00,Wunderground v.1.15,2013-07-14 22:22:00,
2013-07-14 15:28:00,87.5,38.8,29.85,ENE,71,4.0,4.0,18,0.00,,,0.00,Wunderground v.1.15,2013-07-14 22:28:00,
2013-07-14 15:33:00,88.2,37.9,29.85,NNE,13,3.0,8.0,17,0.00,,,0.00,Wunderground v.1.15,2013-07-14 22:33:00,
2013-07-14 15:40:00,88.3,38.0,29.84,NNE,13,3.0,8.0,17,0.00,,,0.00,Wunderground v.1.15,2013-07-14 22:40:00,
2013-07-14 15:46:00,87.7,40.3,29.84,NNW,343,4.0,9.0,19,0.00,,,0.00,Wunderground v.1.15,2013-07-14 22:46:00,
2013-07-14 15:52:00,88.9,38.4,29.84,NNW,343,3.0,3.0,17,0.00,,,0.00,Wunderground v.1.15,2013-07-14 22:52:00,
2013-07-14 15:57:00,88.4,40.9,29.83,North,355,2.0,4.0,19,0.00,,,0.00,Wunderground v.1.15,2013-07-14 22:57:00,
2013-07-14 16:04:00,87.9,39.1,29.83,NE,42,3.0,3.0,18,0.00,,,0.00,Wunderground v.1.15,2013-07-14 23:04:00,
2013-07-14 16:10:00,88.2,39.3,29.83,ENE,64,3.0,7.0,18,0.00,,,0.00,Wunderground v.1.15,2013-07-14 23:10:00,
2013-07-14 16:16:00,88.6,41.1,29.83,North,9,4.0,4.0,19,0.00,,,0.00,Wunderground v.1.15,2013-07-14 23:16:00,
2013-07-14 16:22:00,89.0,40.0,29.83,North,9,3.0,3.0,18,0.00,,,0.00,Wunderground v.1.15,2013-07-14 23:22:00,
2013-07-14 16:28:00,89.2,38.7,29.82,North,9,2.0,4.0,17,0.00,,,0.00,Wunderground v.1.15,2013-07-14 23:28:00,
2013-07-14 16:34:00,89.3,41.6,29.82,North,9,2.0,4.0,19,0.00,,,0.00,Wunderground v.1.15,2013-07-14 23:34:00,
2013-07-14 16:40:00,89.5,40.4,29.82,North,360,3.0,8.0,18,0.00,,,0.00,Wunderground v.1.15,2013-07-14 23:40:00,
2013-07-14 16:46:00,89.1,42.8,29.82,North,350,3.0,4.0,20,0.00,,,0.00,Wunderground v.1.15,2013-07-14 23:46:00,
2013-07-14 16:52:00,88.8,39.8,29.81,North,351,3.0,3.0,18,0.00,,,0.00,Wunderground v.1.15,2013-07-14 23:52:00,
2013-07-14 16:58:00,89.4,43.0,29.81,North,351,2.0,4.0,20,0.00,,,0.00,Wunderground v.1.15,2013-07-14 23:58:00,
2013-07-14 17:03:00,89.5,44.4,29.81,NNW,328,4.0,6.0,21,0.00,,,0.00,Wunderground v.1.15,2013-07-15 00:03:00,
2013-07-14 17:10:00,89.2,44.2,29.81,NW,319,5.0,7.0,21,0.00,,,0.00,Wunderground v.1.15,2013-07-15 00:10:00,
2013-07-14 17:16:00,88.6,41.1,29.80,North,5,6.0,12.0,19,0.00,,,0.00,Wunderground v.1.15,2013-07-15 00:16:00,
2013-07-14 17:22:00,88.1,40.6,29.81,NNW,348,6.0,6.0,19,0.00,,,0.00,Wunderground v.1.15,2013-07-15 00:22:00,
2013-07-14 17:28:00,88.3,43.4,29.80,NW,313,4.0,9.0,21,0.00,,,0.00,Wunderground v.1.15,2013-07-15 00:28:00,
2013-07-14 17:34:00,88.2,43.3,29.80,NW,316,5.0,8.0,21,0.00,,,0.00,Wunderground v.1.15,2013-07-15 00:34:00,
2013-07-14 17:40:00,87.8,44.2,29.80,NW,317,6.0,8.0,22,0.00,,,0.00,Wunderground v.1.15,2013-07-15 00:40:00,
2013-07-14 17:45:00,87.5,44.0,29.80,NW,321,6.0,9.0,22,0.00,,,0.00,Wunderground v.1.15,2013-07-15 00:45:00,
2013-07-14 17:52:00,87.2,43.7,29.80,NNW,341,6.0,7.0,22,0.00,,,0.00,Wunderground v.1.15,2013-07-15 00:52:00,
2013-07-14 17:58:00,86.6,44.4,29.80,WNW,303,7.0,11.0,23,0.00,,,0.00,Wunderground v.1.15,2013-07-15 00:58:00,
2013-07-14 18:04:00,86.1,45.1,29.80,WNW,284,8.0,10.0,24,0.00,,,0.00,Wunderground v.1.15,2013-07-15 01:04:00,
2013-07-14 18:10:00,86.1,45.1,29.79,NW,316,7.0,11.0,24,0.00,,,0.00,Wunderground v.1.15,2013-07-15 01:10:00,
2013-07-14 18:16:00,85.6,45.7,29.79,NW,317,8.0,8.0,25,0.00,,,0.00,Wunderground v.1.15,2013-07-15 01:16:00,
2013-07-14 18:22:00,85.5,45.7,29.80,NW,323,8.0,8.0,25,0.00,,,0.00,Wunderground v.1.15,2013-07-15 01:22:00,
2013-07-14 18:28:00,85.1,46.4,29.80,NW,315,8.0,10.0,26,0.00,,,0.00,Wunderground v.1.15,2013-07-15 01:28:00,
2013-07-14 18:34:00,84.8,46.1,29.80,NW,310,8.0,8.0,26,0.00,,,0.00,Wunderground v.1.15,2013-07-15 01:34:00,
2013-07-14 18:40:00,84.7,46.0,29.80,WNW,292,7.0,8.0,26,0.00,,,0.00,Wunderground v.1.15,2013-07-15 01:40:00,
2013-07-14 18:46:00,84.3,46.7,29.80,NW,320,8.0,8.0,27,0.00,,,0.00,Wunderground v.1.15,2013-07-15 01:46:00,
2013-07-14 18:52:00,83.9,46.3,29.80,NNW,327,7.0,15.0,27,0.00,,,0.00,Wunderground v.1.15,2013-07-15 01:52:00,
2013-07-14 18:58:00,83.2,45.7,29.80,NW,323,9.0,15.0,27,0.00,,,0.00,Wunderground v.1.15,2013-07-15 01:58:00,
2013-07-14 19:04:00,82.8,45.4,29.80,WNW,303,10.0,10.0,27,0.00,,,0.00,Wunderground v.1.15,2013-07-15 02:04:00,
2013-07-14 19:10:00,82.5,46.1,29.80,NW,315,9.0,10.0,28,0.00,,,0.00,Wunderground v.1.15,2013-07-15 02:10:00,
2013-07-14 19:15:00,82.3,45.0,29.80,WNW,291,9.0,9.0,27,0.00,,,0.00,Wunderground v.1.15,2013-07-15 02:15:00,
2013-07-14 19:22:00,82.0,45.7,29.80,NW,321,8.0,8.0,28,0.00,,,0.00,Wunderground v.1.15,2013-07-15 02:22:00,
2013-07-14 19:28:00,81.7,46.3,29.81,NNW,329,8.0,17.0,29,0.00,,,0.00,Wunderground v.1.15,2013-07-15 02:28:00,
2013-07-14 19:34:00,81.5,46.2,29.81,WNW,293,8.0,9.0,29,0.00,,,0.00,Wunderground v.1.15,2013-07-15 02:34:00,
2013-07-14 19:39:00,81.2,45.9,29.81,NW,316,8.0,9.0,29,0.00,,,0.00,Wunderground v.1.15,2013-07-15 02:39:00,
2013-07-14 19:46:00,81.0,45.7,29.80,WNW,288,7.0,11.0,29,0.00,,,0.00,Wunderground v.1.15,2013-07-15 02:46:00,
2013-07-14 19:52:00,80.5,45.3,29.80,WNW,300,8.0,8.0,29,0.00,,,0.00,Wunderground v.1.15,2013-07-15 02:52:00,
2013-07-14 19:57:00,80.2,45.9,29.81,NW,313,7.0,8.0,30,0.00,,,0.00,Wunderground v.1.15,2013-07-15 02:57:00,
2013-07-14 20:04:00,79.8,44.7,29.81,WNW,294,7.0,7.0,29,0.00,,,0.00,Wunderground v.1.15,2013-07-15 03:04:00,
2013-07-14 20:10:00,79.4,43.4,29.81,WNW,300,7.0,7.0,28,0.00,,,0.00,Wunderground v.1.15,2013-07-15 03:10:00,
2013-07-14 20:16:00,79.0,43.1,29.81,NNW,344,7.0,12.0,28,0.00,,,0.00,Wunderground v.1.15,2013-07-15 03:16:00,
2013-07-14 20:21:00,78.5,43.6,29.81,WNW,300,7.0,7.0,29,0.00,,,0.00,Wunderground v.1.15,2013-07-15 03:21:00,
2013-07-14 20:28:00,78.1,43.2,29.81,NW,317,6.0,9.0,29,0.00,,,0.00,Wunderground v.1.15,2013-07-15 03:28:00,
2013-07-14 20:34:00,77.5,44.5,29.81,NW,319,5.0,8.0,31,0.00,,,0.00,Wunderground v.1.15,2013-07-15 03:34:00,
2013-07-14 20:39:00,77.2,45.9,29.81,NW,319,7.0,13.0,33,0.00,,,0.00,Wunderground v.1.15,2013-07-15 03:39:00,
2013-07-14 20:46:00,76.7,46.2,29.82,NNW,331,6.0,8.0,34,0.00,,,0.00,Wunderground v.1.15,2013-07-15 03:46:00,
2013-07-14 20:52:00,76.0,46.4,29.82,NNW,331,5.0,6.0,35,0.00,,,0.00,Wunderground v.1.15,2013-07-15 03:52:00,
2013-07-14 20:58:00,75.6,46.8,29.82,NW,313,5.0,6.0,36,0.00,,,0.00,Wunderground v.1.15,2013-07-15 03:58:00,
2013-07-14 21:01:00,75.4,47.3,29.82,NW,314,5.0,5.0,37,0.00,,,0.00,Wunderground v.1.15,2013-07-15 04:01:00,
2013-07-14 21:06:00,75.0,47.7,29.82,NW,314,3.0,5.0,38,0.00,,,0.00,Wunderground v.1.15,2013-07-15 04:06:00,
2013-07-14 21:12:00,74.5,47.2,29.82,NNW,327,3.0,3.0,38,0.00,,,0.00,Wunderground v.1.15,2013-07-15 04:12:00,
2013-07-14 21:14:00,74.4,47.1,29.82,NNW,327,3.0,3.0,38,0.00,,,0.00,Wunderground v.1.15,2013-07-15 04:14:00,
2013-07-14 21:20:00,74.1,46.9,29.83,NNW,327,3.0,5.0,38,0.00,,,0.00,Wunderground v.1.15,2013-07-15 04:20:00,
2013-07-14 21:25:00,73.7,47.2,29.83,NNW,327,3.0,3.0,39,0.00,,,0.00,Wunderground v.1.15,2013-07-15 04:25:00,
2013-07-14 21:32:00,73.3,46.8,29.83,NNW,327,2.0,2.0,39,0.00,,,0.00,Wunderground v.1.15,2013-07-15 04:32:00,
2013-07-14 21:38:00,72.9,46.5,29.83,NNW,327,1.0,2.0,39,0.00,,,0.00,Wunderground v.1.15,2013-07-15 04:38:00,
2013-07-14 21:43:00,72.6,46.9,29.83,NNW,327,2.0,3.0,40,0.00,,,0.00,Wunderground v.1.15,2013-07-15 04:43:00,
2013-07-14 21:50:00,72.2,46.5,29.83,NNW,327,1.0,3.0,40,0.00,,,0.00,Wunderground v.1.15,2013-07-15 04:50:00,
2013-07-14 21:56:00,71.8,46.8,29.84,NNW,327,1.0,1.0,41,0.00,,,0.00,Wunderground v.1.15,2013-07-15 04:56:00,
2013-07-14 22:02:00,71.7,46.7,29.84,NNW,327,1.0,1.0,41,0.00,,,0.00,Wunderground v.1.15,2013-07-15 05:02:00,
2013-07-14 22:08:00,71.3,47.0,29.84,NNW,327,1.0,2.0,42,0.00,,,0.00,Wunderground v.1.15,2013-07-15 05:08:00,
2013-07-14 22:14:00,71.2,47.6,29.84,NNW,327,1.0,1.0,43,0.00,,,0.00,Wunderground v.1.15,2013-07-15 05:14:00,
2013-07-14 22:20:00,71.1,48.1,29.84,NNW,327,1.0,1.0,44,0.00,,,0.00,Wunderground v.1.15,2013-07-15 05:20:00,
2013-07-14 22:26:00,71.0,48.0,29.84,NNW,327,0.0,2.0,44,0.00,,,0.00,Wunderground v.1.15,2013-07-15 05:26:00,
2013-07-14 22:32:00,70.9,47.9,29.84,NNW,327,0.0,0.0,44,0.00,,,0.00,Wunderground v.1.15,2013-07-15 05:32:00,
2013-07-14 22:38:00,70.9,47.9,29.84,NNW,327,0.0,2.0,44,0.00,,,0.00,Wunderground v.1.15,2013-07-15 05:38:00,
2013-07-14 22:44:00,70.9,47.9,29.84,NNW,327,0.0,0.0,44,0.00,,,0.00,Wunderground v.1.15,2013-07-15 05:44:00,
2013-07-14 22:50:00,70.8,47.8,29.84,NNW,327,0.0,1.0,44,0.00,,,0.00,Wunderground v.1.15,2013-07-15 05:50:00,
2013-07-14 22:56:00,70.5,47.5,29.84,NNW,327,0.0,0.0,44,0.00,,,0.00,Wunderground v.1.15,2013-07-15 05:56:00,
2013-07-14 23:02:00,70.3,47.9,29.84,NNW,327,0.0,0.0,45,0.00,,,0.00,Wunderground v.1.15,2013-07-15 06:02:00,
2013-07-14 23:08:00,69.3,47.6,29.85,NNW,327,0.0,1.0,46,0.00,,,0.00,Wunderground v.1.15,2013-07-15 06:08:00,
2013-07-14 23:13:00,68.8,46.0,29.85,NNW,327,0.0,1.0,44,0.00,,,0.00,Wunderground v.1.15,2013-07-15 06:13:00,
2013-07-14 23:20:00,68.8,45.4,29.85,NNW,327,0.0,1.0,43,0.00,,,0.00,Wunderground v.1.15,2013-07-15 06:20:00,
2013-07-14 23:26:00,68.6,44.6,29.85,NNW,327,0.0,0.0,42,0.00,,,0.00,Wunderground v.1.15,2013-07-15 06:26:00,
2013-07-14 23:32:00,68.4,44.4,29.85,NNW,327,0.0,0.0,42,0.00,,,0.00,Wunderground v.1.15,2013-07-15 06:32:00,
2013-07-14 23:37:00,68.2,44.8,29.85,NNW,327,0.0,1.0,43,0.00,,,0.00,Wunderground v.1.15,2013-07-15 06:37:00,
2013-07-14 23:44:00,67.7,45.0,29.86,NNW,327,0.0,0.0,44,0.00,,,0.00,Wunderground v.1.15,2013-07-15 06:44:00,
2013-07-14 23:50:00,67.4,44.1,29.86,NNW,327,0.0,0.0,43,0.00,,,0.00,Wunderground v.1.15,2013-07-15 06:50:00,
2013-07-14 23:56:00,66.8,44.2,29.86,NNW,327,0.0,0.0,44,0.00,,,0.00,Wunderground v.1.15,2013-07-15 06:56:00,